Regional Weather Roundup
Issued by NWS

Home | Current Version | Previous Version | Graphics & Text | Print | Product List | Glossary On
Versions: 1 2 3 4 5 6 7 8 9 10 11 12 13 14 15 16 17 18 19 20 21 22 23 24 25 26 27 28 29 30 31 32 33 34 35 36 37 38 39 40 41 42 43 44 45 46 47 48 49 50
000
ASUS43 KOAX 210810
RWRNE

WEATHER ROUNDUP FOR NEBRASKA
NATIONAL WEATHER SERVICE OMAHA NE
200 AM CST SUN DEC 21 2014

NOTES: SATELLITE DATA IS BEING USED TO AUGMENT CLOUD COVER ABOVE
       12000 FEET.
       "FAIR" INDICATES FEW OR NO CLOUDS BELOW 12,000 FEET WITH NO
       SIGNIFICANT WEATHER AND/OR OBSTRUCTIONS TO VISIBILITY.

  * THESE STATIONS DO NOT REPORT WEATHER SUCH AS RAIN...SNOW OR FOG.

NEZ001>004-019>022-054>056-210900-
NEBRASKA PANHANDLE

CITY           SKY/WX    TMP DP  RH WIND       PRES   REMARKS
SCOTTSBLUFF    PTCLDY    28  23  81 CALM      29.83F
ALLIANCE       PTCLDY    30  24  78 SW13      29.80F WCI  20
CHADRON        CLEAR     23  20  88 SW8       29.78F WCI  14
KIMBALL        MOCLDY    35  24  63 W5        29.84F WCI  31
SIDNEY         CLOUDY    34  26  72 W12       29.87S WCI  25
$$

NEZ057>060-069>072-079>082-210900-
SOUTHWEST NEBRASKA

CITY           SKY/WX    TMP DP  RH WIND       PRES   REMARKS
NORTH PLATTE   PTCLDY    24  22  91 W5        29.88F WCI  18
IMPERIAL       CLOUDY    36  26  67 S6        29.87F WCI  31
LEXINGTON      PTCLDY    27  26  94 W3        29.88F
MCCOOK         PTCLDY    28  24  85 W5        29.89F WCI  23
OGALLALA       CLOUDY    28  26  94 W6        29.88S WCI  21
$$

NEZ005>010-023>029-035>040-094-210900-
NORTH CENTRAL NEBRASKA

CITY           SKY/WX    TMP DP  RH WIND       PRES   REMARKS
VALENTINE      CLOUDY    29  25  85 SW6       29.82F WCI  23
AINSWORTH      CLOUDY    27  24  89 CALM      29.82F
BROKEN BOW     CLEAR     29  24  82 CALM      29.86F
O`NEILL        FOG       28  28 100 S6        29.85F VSB 1/4 WCI  21
THEDFORD       MOCLDY    28  26  90 W3        29.85F
$$

NEZ041-046>049-061>064-073>077-083>087-210900-
SOUTH CENTRAL NEBRASKA

CITY           SKY/WX    TMP DP  RH WIND       PRES   REMARKS
GRAND ISLAND   FOG       27  26  96 S3        29.90F VSB 1/4
AURORA         FOG       31  31 100 S5        29.91F VSB 1/4 WCI  26
HASTINGS       CLEAR     32  30  92 S7        29.90F WCI  26
HEBRON         PTCLDY    35  33  92 S8        29.96F FOG     WCI  28
HOLDREGE       CLEAR     31  28  90 S3        29.89F
KEARNEY *      CLEAR     30  27  86 S7        29.89F WCI  23
YORK           CLOUDY    32  32 100 SW7       29.92F FOG     WCI  26
$$

NEZ011>018-030>034-042>045-210900-
NORTHEAST NEBRASKA

CITY           SKY/WX    TMP DP  RH WIND       PRES   REMARKS
NORFOLK        FOG       33  33 100 S13       29.90F VSB 3/4 WCI  24
ALBION         FOG       32  30  94 SE8       29.89F VSB 1/4 WCI  24
BLAIR          CLOUDY    37  35  94 S12       29.95F FOG     WCI  29
COLUMBUS *     CLOUDY    36  32  87 S7        29.93F VSB 1/4 WCI  30
FREMONT        CLOUDY    37  37  99 SE5       29.95F FOG     WCI  34
TEKAMAH        FOG       34  33  96 SE10      29.96F VSB 1   WCI  26
WAYNE          FOG       33  33  99 S8        29.92F VSB 1/4 WCI  26
$$

NEZ050>053-065>068-078-088>093-210900-
SOUTHEAST NEBRASKA

CITY           SKY/WX    TMP DP  RH WIND       PRES   REMARKS
LINCOLN        CLOUDY    34  33  96 S7        29.97F FOG     WCI  28
OMAHA EPPLEY   CLOUDY    37  35  92 S13       29.99F FOG     WCI  29
BEATRICE       CLOUDY    36  35  96 S10       29.98F WCI  29
FALLS CITY     MOCLDY    35  33  92 S6        30.04S WCI  30
NEBRASKA CITY  CLEAR     33  33 100 S12       30.00F FOG     WCI  24
PLATTSMOUTH    CLOUDY    34  32  94 S9        29.99S FOG     WCI  26
$$

NEZ044-045-051>053-067-210900-
OMAHA AREA

CITY           SKY/WX    TMP DP  RH WIND       PRES   REMARKS
OMAHA EPPLEY   CLOUDY    37  35  92 S13       29.99F FOG     WCI  29
BLAIR          CLOUDY    37  35  94 S12       29.95F FOG     WCI  29
FREMONT        CLOUDY    37  37  99 SE5       29.95F FOG     WCI  34
MILLARD        CLOUDY    36  35  95 SE8       29.98F FOG     WCI  29
OFFUTT AFB     CLOUDY    34  32  93 SE5       29.99F FOG     WCI  30
PLATTSMOUTH    CLOUDY    34  32  94 S9        29.99S FOG     WCI  26
WAHOO          CLOUDY    36  34  93 SE7       29.95F FOG     WCI  30
$$



USA.gov is the U.S. government's official web portal to all federal, state and local government web resources and services.